Powrót do katalogu

LEMUR 1

AktywnyNaukaSSO
NORAD 40044·PAYLOAD·🇺🇸 United States

Wystrzelony Jun 19, 2014 z Dombarovsky

Loading…

Następne Przeloty (najbliższe 24 godziny)

TLE

ŚwieżeSource: Space-Track

Epoka: Sep 14, 2026, 08:22 UTC

1 40044U 14033AL  26257.34915331  .00001759  00000-0  20562-3 0  9994
2 40044  97.8004  45.2567 0048837 144.2558 216.1943 14.85521747658706

Śledź LEMUR 1 w czasie rzeczywistym z AllMySat

Download on the App Store